Kamez, Albania

2:07 PM CEST on August 17, 2017 (GMT +0200)
Kamez

Weather History for 13615 - September, 2013

Change the Weather History Date:

Thursday, September 5, 2013

  Actual Average Record
Temperature  
Mean Temperature 72 °F -  
Max Temperature 86 °F 77 °F - ()
Min Temperature 57 °F 58 °F - ()
Cooling Degree Days 6    
Growing Degree Days 22 (Base 50)    
Moisture  
Dew Point 55 °F    
Average Humidity 61    
Maximum Humidity 94    
Minimum Humidity 21    
Precipitation  
Precipitation 0.00 in -13.12 in - ()
Sea Level Pressure  
Sea Level Pressure 30.02 in    
Wind  
Wind Speed 3 mph ()    
Max Wind Speed 9 mph    
Max Gust Speed -    
Visibility 7.1 miles    
Events      
T = Trace of Precipitation, MM = Missing Value Source: Averaged Metar Reports

Daily Weather History Graph

Daily Weather History Graph

Search for Another Location

Airport or City:

Trip Planner

Search our weather history database for the weather conditions in past years. The results will help you decide how hot, cold, wet, or windy it might be!

Date:

Astronomy

Sep. 05, 2013 Rise Set
Actual Time 6:11 AM CEST 7:07 PM CEST
Civil Twilight 5:42 AM CEST 7:35 PM CEST
Nautical Twilight 5:09 AM CEST 8:08 PM CEST
Astronomical Twilight 4:34 AM CEST 8:43 PM CEST
Moon 6:05 AM CEST (9/5) 6:48 PM CEST (9/5)
Length of Visible Light 13h 52m
Length of Day
12h 56m
Waning Crescent, 0% of the Moon is Illuminated
Sep 5
Waning Crescent
Sep 5
New
Sep 12
First Quarter
Sep 19
Full
Sep 27
Last Quarter

Hourly Weather History & Observations

Time (CEST) Temp. Heat Index Dew Point Humidity Pressure Visibility Wind Dir Wind Speed Gust Speed Precip Events Conditions
12:20 AM 62.6 °F - 57.2 °F 82% 30.06 in - Variable 2.3 mph - N/A   Clear
12:50 AM 62.6 °F - 57.2 °F 82% 30.06 in - ESE 3.5 mph - N/A   Clear
1:20 AM 60.8 °F - 57.2 °F 88% 30.06 in - Calm Calm - N/A   Clear
1:50 AM 60.8 °F - 57.2 °F 88% 30.06 in - NNE 2.3 mph - N/A   Clear
2:20 AM 60.8 °F - 57.2 °F 88% 30.06 in - Variable 2.3 mph - N/A   Clear
2:50 AM 60.8 °F - 55.4 °F 82% 30.06 in - Calm Calm - N/A   Clear
3:20 AM 59.0 °F - 55.4 °F 88% 30.06 in - ESE 3.5 mph - N/A   Clear
3:50 AM 57.2 °F - 55.4 °F 94% 30.06 in - Calm Calm - N/A   Clear
4:20 AM 57.2 °F - 55.4 °F 94% 30.06 in - WSW 3.5 mph - N/A   Clear
4:50 AM 57.2 °F - 55.4 °F 94% 30.04 in - South 3.5 mph - N/A   Clear
5:00 AM 57 °F - 54 °F 85% 30.06 in 10 mi SE 2.2 mph - -  
5:20 AM 57.2 °F - 55.4 °F 94% 30.04 in - SSE 3.5 mph - N/A   Clear
5:50 AM 57.2 °F - 53.6 °F 88% 30.04 in - SSE 3.5 mph - N/A   Clear
6:20 AM 57.2 °F - 53.6 °F 88% 30.06 in - ESE 2.3 mph - N/A   Clear
6:50 AM 59.0 °F - 53.6 °F 82% 30.06 in - Variable 2.3 mph - N/A   Clear
7:20 AM 60.8 °F - 55.4 °F 82% 30.06 in - South 3.5 mph - N/A   Clear
7:50 AM 62.6 °F - 55.4 °F 77% 30.06 in - South 4.6 mph - N/A   Clear
8:20 AM 66.2 °F - 55.4 °F 68% 30.04 in - South 3.5 mph - N/A   Clear
8:50 AM 69.8 °F - 53.6 °F 56% 30.04 in - SE 3.5 mph - N/A   Clear
9:20 AM 75.2 °F - 50.0 °F 41% 30.04 in - SSE 3.5 mph - N/A   Clear
9:50 AM 77.0 °F - 51.8 °F 41% 30.04 in - Calm Calm - N/A   Clear
10:20 AM 78.8 °F - 50.0 °F 36% 30.04 in - Calm Calm - N/A   Clear
10:50 AM 80.6 °F - 50.0 °F 34% 30.04 in - Variable 2.3 mph - N/A   Clear
11:00 AM 82 °F - 48 °F 21% 30.05 in 28 mi 2.2 mph - -  
11:20 AM 82.4 °F - 50.0 °F 32% 30.04 in - Variable 2.3 mph - N/A   Clear
11:50 AM 82.4 °F 81.4 °F 53.6 °F 37% 30.04 in - WSW 4.6 mph - N/A   Clear
12:20 PM 84.2 °F 82.8 °F 53.6 °F 35% 30.04 in - Calm Calm - N/A   Clear
12:50 PM 84.2 °F 82.8 °F 53.6 °F 35% 30.04 in - Variable 4.6 mph - N/A   Clear
1:20 PM 84.2 °F 82.8 °F 53.6 °F 35% 30.04 in - West 6.9 mph - N/A   Clear
1:50 PM 86.0 °F 84.5 °F 55.4 °F 35% 30.01 in - West 6.9 mph - N/A   Clear
2:20 PM 86.0 °F 84.9 °F 57.2 °F 37% 30.01 in 6.2 mi WSW 8.1 mph - N/A   Partly Cloudy
2:50 PM 86.0 °F 84.9 °F 57.2 °F 37% 29.98 in 6.2 mi WSW 9.2 mph - N/A   Partly Cloudy
3:20 PM 84.2 °F 83.0 °F 55.4 °F 37% 29.98 in 6.2 mi West 9.2 mph - N/A   Partly Cloudy
3:50 PM 84.2 °F 82.8 °F 53.6 °F 35% 29.98 in 6.2 mi WSW 8.1 mph - N/A   Partly Cloudy
4:20 PM 84.2 °F - 50.0 °F 30% 29.98 in 6.2 mi WSW 8.1 mph - N/A   Partly Cloudy
4:50 PM 84.2 °F - 48.2 °F 29% 29.98 in 6.2 mi WSW 8.1 mph - N/A   Partly Cloudy
5:00 PM 83 °F - 50 °F 22% 29.97 in 34 mi WSW 8.9 mph - -  
5:20 PM 84.2 °F 83.0 °F 55.4 °F 37% 29.98 in - WSW 6.9 mph - N/A   Clear
5:50 PM 78.8 °F - 57.2 °F 47% 29.98 in - West 5.8 mph - N/A   Clear
6:20 PM 78.8 °F - 59.0 °F 51% 29.98 in - West 3.5 mph - N/A   Clear
6:50 PM 77.0 °F - 57.2 °F 50% 29.98 in 6.2 mi WNW 4.6 mph - N/A   Partly Cloudy
7:20 PM 73.4 °F - 59.0 °F 61% 29.98 in 6.2 mi NW 4.6 mph - N/A   Partly Cloudy
7:50 PM 73.4 °F - 59.0 °F 61% 29.98 in 6.2 mi Calm Calm - N/A   Partly Cloudy
8:20 PM 71.6 °F - 59.0 °F 64% 29.98 in - Calm Calm - N/A   Clear
8:50 PM 69.8 °F - 59.0 °F 68% 29.98 in - East 3.5 mph - N/A   Clear
9:20 PM 68.0 °F - 59.0 °F 73% 29.98 in - SSE 2.3 mph - N/A   Clear
9:50 PM 64.4 °F - 59.0 °F 83% 29.98 in - Variable 2.3 mph - N/A   Clear
10:20 PM 66.2 °F - 57.2 °F 73% 29.98 in - South 3.5 mph - N/A   Clear
10:50 PM 64.4 °F - 57.2 °F 77% 29.98 in - SSE 2.3 mph - N/A   Clear
11:00 PM 64 °F - 58 °F 75% 29.99 in 12 mi SSE 2.2 mph - -  
11:20 PM 62.6 °F - 57.2 °F 82% 29.98 in - South 2.3 mph - N/A   Clear
11:50 PM 64.4 °F - 57.2 °F 77% 29.98 in - South 3.5 mph - N/A   Clear